This demonstration page uses our WeatherBlox Daily Observations layout. Learn more.

Left ArrowRight Arrow

Hourly Observations for August 24, 2018

Temp ( °F °C ) Dew Point ( °F °C ) Humidity (%) Winds ( mph kmh ) Pressure ( in mb ) Visibility ( mi km ) Precip ( " mm )
12:06 am 00:06 Mostly Cloudy 67 19.4 64 17.8 91 91 SSE 15 24 29.94 1014 9 14 0.00 0.00
12:52 am 00:52 Mostly Cloudy 67 19.4 64 17.8 91 91 SSE 16 26 29.94 1014 8 13 0.00 0.00
1:16 am 01:16 Partly Cloudy 67 19.4 64 17.8 91 91 SSE 18 30 29.94 1014 8 13 0.00 0.00
1:52 am 01:52 Clear 67 19.4 63 17.2 87 87 SSE 17 28 29.92 1013 9 14 0.00 0.00
2:52 am 02:52 Clear 67 19.4 63 17.2 87 87 SSE 17 28 29.91 1013 10 16 0.00 0.00
3:52 am 03:52 Clear 67 19.4 63 17.2 87 87 SSE 20 31 29.89 1012 10 16 0.00 0.00
4:52 am 04:52 Clear 67 19.4 63 17.2 87 87 SSE 18 30 29.89 1012 10 16 0.00 0.00
5:52 am 05:52 Clear 66 18.9 63 17.2 90 90 S 15 24 29.89 1012 10 16 0.00 0.00
6:52 am 06:52 Partly Cloudy 66 18.9 63 17.2 90 90 SSE 13 20 29.89 1012 9 14 0.00 0.00
7:52 am 07:52 Mostly Sunny 67 19.4 64 17.8 91 91 S 13 20 29.90 1013 8 13 0.00 0.00
8:52 am 08:52 Mostly Cloudy 69 20.6 65 18.3 87 87 S 16 26 29.90 1013 8 13 0.00 0.00
9:52 am 09:52 Sunny 72 22.2 66 18.9 82 82 S 17 28 29.89 1012 8 13 0.00 0.00
10:52 am 10:52 Mostly Sunny 79 26.1 70 21.1 74 74 SW 12 19 29.90 1013 9 14 0.00 0.00
11:52 am 11:52 Sunny 83 28.3 70 21.1 65 65 SW 12 19 29.90 1012 10 16 0.00 0.00
12:52 pm 12:52 Mostly Sunny 86 30 71 21.7 61 61 SW 15 24 29.88 1012 10 16 0.00 0.00
1:52 pm 13:52 Sunny 85 29.4 70 21.1 61 61 SW 8 13 29.88 1012 10 16 0.00 0.00
2:52 pm 14:52 Partly Cloudy with Light Rain 84 28.9 71 21.7 65 65 S 10 17 29.87 1011 10 16 0.00 0.03
3:52 pm 15:52 Sunny 83 28.3 72 22.2 70 70 S 12 19 29.85 1011 10 16 0.00 0.03
4:52 pm 16:52 Mostly Sunny 84 28.9 73 22.8 70 70 SSE 12 19 29.85 1011 10 16 0.00 0.00
5:52 pm 17:52 Mostly Cloudy 84 28.9 72 22.2 67 67 SSE 12 19 29.85 1011 10 16 0.00 0.00
6:52 pm 18:52 Partly Cloudy with Light Rain 83 28.3 72 22.2 70 70 SSE 13 20 29.84 1011 9 14 0.00 0.03
7:52 pm 19:52 Mostly Cloudy 81 27.2 72 22.2 74 74 SSE 9 15 29.85 1011 9 14 0.00 0.03
8:52 pm 20:52 Mostly Cloudy 81 27.2 73 22.8 77 77 S 12 19 29.86 1011 10 16 0.00 0.00
9:52 pm 21:52 Mostly Clear 79 26.1 73 22.8 82 82 S 10 17 29.88 1012 10 16 0.00 0.00
10:52 pm 22:52 Clear 78 25.6 72 22.2 82 82 S 10 17 29.89 1012 9 14 0.00 0.00
11:52 pm 23:52 Clear 78 25.6 72 22.2 82 82 S 10 17 29.90 1012 8 13 0.00 0.00

Powered by AerisWeather